Weather History for Wolf Point, MT

Change the Weather History Date:

Monday, September 1, 2014

  Actual Average Record
Temperature  
Mean Temperature 61 °F -  
Max Temperature 75 °F 81 °F 100 °F (2004)
Min Temperature 47 °F 47 °F 37 °F (2006)
Degree Days  
Heating Degree Days 4    
Cooling Degree Days 0    
Growing Degree Days 10 (Base 50)    
Moisture  
Dew Point 48 °F    
Average Humidity 68    
Maximum Humidity 90    
Minimum Humidity 35    
Precipitation  
Precipitation 0.06 in 0.04 in 0.32 in (2008)
Month to date precipitation 0.06 0.04  
Year to date precipitation 12.49 9.71  
Sea Level Pressure  
Sea Level Pressure 29.84 in    
Wind  
Wind Speed 8 mph (WSW)    
Max Wind Speed 20 mph    
Max Gust Speed 26 mph    
Visibility 10 miles    
Events Rain , Thunderstorm    
T = Trace of Precipitation, MM = Missing Value Source: NWS Daily Summary

Daily Weather History Graph

Daily Weather History Graph

Search for Another Location

Airport:

Trip Planner

Search our weather history database for the weather conditions in past years. The results will help you decide how hot, cold, wet, or windy it might be!

Date:

Astronomy

Sep. 01, 2014 Rise Set
Actual Time 6:20 AM MDT 7:43 PM MDT
Civil Twilight 5:47 AM MDT 8:15 PM MDT
Nautical Twilight 5:08 AM MDT 8:54 PM MDT
Astronomical Twilight 4:26 AM MDT 9:36 PM MDT
Moon 1:39 PM MDT (9/1) 11:15 PM MDT (9/1)
Length of Visible Light 14h 27m
Length of Day
13h 23m
Waxing Crescent, 43% of the Moon is Illuminated
Sep 1
Waxing Crescent
Sep 2
First Quarter
Sep 8
Full
Sep 15
Last Quarter
Sep 24
New

Hourly Weather History & Observations

Time (MDT) Temp. Dew Point Humidity Pressure Visibility Wind Dir Wind Speed Gust Speed Precip Events Conditions
12:53 AM 55.0 °F 48.0 °F 77% 29.80 in 10.0 mi North 11.5 mph - N/A   Clear
1:53 AM 54.0 °F 46.9 °F 77% 29.81 in 10.0 mi ESE 4.6 mph - N/A   Clear
2:53 AM 51.1 °F 46.9 °F 86% 29.82 in 10.0 mi Calm Calm - N/A   Clear
3:53 AM 50.0 °F 46.0 °F 86% 29.84 in 10.0 mi WSW 5.8 mph - N/A   Clear
4:53 AM 48.9 °F 46.0 °F 90% 29.84 in 10.0 mi SW 4.6 mph - N/A   Clear
5:53 AM 46.9 °F 44.1 °F 90% 29.85 in 10.0 mi SSW 4.6 mph - N/A   Clear
6:53 AM 48.9 °F 46.0 °F 90% 29.86 in 10.0 mi WSW 5.8 mph - N/A   Clear
7:53 AM 52.0 °F 46.9 °F 83% 29.88 in 10.0 mi SW 4.6 mph - N/A   Clear
8:53 AM 57.2 °F 48.2 °F 72% 29.87 in 10.0 mi WSW 6.9 mph - N/A   Clear
9:53 AM 60.1 °F 50.0 °F 69% 29.88 in 10.0 mi WSW 5.8 mph - N/A   Clear
10:53 AM 66.9 °F 51.1 °F 57% 29.87 in 10.0 mi SW 9.2 mph - N/A   Clear
11:53 AM 70.0 °F 48.9 °F 47% 29.86 in 10.0 mi SW 10.4 mph - N/A   Scattered Clouds
12:53 PM 71.1 °F 48.0 °F 44% 29.85 in 10.0 mi SW 11.5 mph - N/A   Partly Cloudy
1:53 PM 73.0 °F 46.9 °F 39% 29.84 in 10.0 mi WSW 15.0 mph 20.7 mph N/A   Clear
2:53 PM 73.0 °F 45.0 °F 37% 29.83 in 10.0 mi WSW 12.7 mph - N/A   Clear
3:53 PM 73.9 °F 46.0 °F 37% 29.83 in 10.0 mi West 11.5 mph - N/A   Clear
4:53 PM 73.0 °F 44.1 °F 35% 29.82 in 10.0 mi WSW 12.7 mph 19.6 mph N/A   Clear
5:53 PM 68.0 °F 45.0 °F 43% 29.86 in 10.0 mi WNW 19.6 mph 26.5 mph N/A Thunderstorm Thunderstorm
6:07 PM 60.1 °F 51.1 °F 72% 29.87 in 4.0 mi WNW 16.1 mph - 0.04 in Rain , Thunderstorm Light Thunderstorms and Rain
6:31 PM 60.1 °F 51.1 °F 72% 29.87 in 7.0 mi NNW 10.4 mph - 0.06 in Rain Light Rain
6:53 PM 63.0 °F 54.0 °F 72% 29.85 in 10.0 mi NNE 8.1 mph - 0.06 in Rain Light Rain
7:53 PM 57.9 °F 52.0 °F 81% 29.85 in 10.0 mi South 3.5 mph - 0.00 in   Clear
8:53 PM 55.0 °F 48.9 °F 80% 29.84 in 10.0 mi SSW 4.6 mph - N/A   Clear
9:53 PM 57.0 °F 50.0 °F 77% 29.84 in 10.0 mi Calm Calm - N/A   Clear
10:53 PM 57.0 °F 51.1 °F 81% 29.82 in 10.0 mi Calm Calm - N/A   Overcast
11:53 PM 57.0 °F 51.1 °F 81% 29.80 in 10.0 mi Calm Calm - N/A   Scattered Clouds